Lid_Strength_Index
-1 -1 1 3 7 7 8 7 5 6 6 4 4 5 6 5 7 11 1 0 -0 -0 -1 -1 -1 -1 -1 -1 -1 -1 -1 -1 -1 -1 -1 -1 -1 -1 -1 -1 -1 -1 -1 -1 -1 -1 -1 -1 -1
-1 1 3 5 8 9 9 6 6 5 4 4 4 5 5 6 3 3 2 0 -0 -0 -1 -1 -1 -1 -1 -1 -1 -1 -1 -1 -1 -1 -1 -1 -1 -1 -1 -1 -1 -1 -1 -1 -1 -1 -1 -1 -1
0 2 6 7 8 9 8 6 5 4 3 4 5 3 4 5 3 2 1 0 -0 -0 -1 -1 -1 -1 -1 -1 -1 -1 -1 -1 -1 -1 -1 -1 -1 -1 -1 -1 -1 -1 -1 -1 -1 -1 -1 -1 -1
1 4 5 8 9 7 6 5 4 4 4 3 4 5 3 2 3 1 0 -0 0 -0 -1 -1 -1 -1 -1 -1 -1 -1 -1 -1 -1 -1 -1 -1 -1 -1 -1 -1 -1 -1 -1 -1 -1 -1 -1 -1 -1
1 5 8 9 9 7 5 4 4 5 4 4 4 5 5 2 1 1 0 0 0 -0 -1 -1 -1 -1 -1 -1 -1 -1 -1 -1 -1 -1 -1 -1 -1 -1 -1 -1 -1 -1 -1 -1 -1 -1 -1 -1 -1
5 5 9 10 9 7 5 4 4 4 4 4 4 5 5 2 2 1 0 0 -0 -0 -1 -1 -1 -1 -1 -1 -1 -1 -1 -1 -1 -1 -1 -1 -1 -1 -1 -1 -1 -1 -1 -1 -1 -1 -1 -2 -2
6 7 9 8 8 7 6 4 5 4 4 4 3 5 4 3 1 1 0 -0 -0 -0 -0 -1 -1 -1 -1 -1 -1 -1 -1 -1 -1 -1 -1 -1 -1 -1 -1 -1 -1 -1 -1 -1 -1 -1 -1 -2 -2
4 6 8 8 8 8 5 4 4 4 4 2 2 5 5 3 1 1 0 0 0 -0 -0 -0 -1 -1 -1 -1 -1 -1 -1 -1 -1 -1 -1 -2 -2 -2 -1 -2 -1 -1 -1 -1 -1 -1 -1 -2 -2
3 8 9 8 8 7 4 5 3 3 3 3 3 3 3 2 1 2 2 1 1 0 -0 -0 -0 -1 -1 -1 -1 -1 -1 -1 -1 -1 -1 -2 -2 -2 -2 -2 -1 -1 -1 -1 -1 -2 -2 -2 -2
5 8 8 6 5 6 5 5 4 4 5 4 3 3 2 2 2 3 3 2 2 1 1 -0 -0 -1 -1 -1 -1 -2 -1 -1 -2 -2 -2 -2 -2 -2 -1 -2 -2 -2 -2 -2 -2 -2 -2 -1 -1
5 7 5 5 4 4 5 5 4 5 6 4 4 3 3 3 3 3 3 2 2 1 0 0 -0 -1 -1 -1 -1 -1 -1 -1 -1 -2 -2 -2 -1 -2 -1 -1 -1 -2 -2 -1 -1 -1 -1 -1 -1
6 5 5 5 4 4 6 5 6 5 5 3 2 2 3 3 3 3 3 2 2 1 1 -0 -0 -0 -1 -0 -1 -1 -1 -1 -1 -1 -2 -2 -1 -1 -1 -1 -2 -1 -1 -1 -1 -1 -1 -1 -1
6 5 4 4 4 4 4 6 6 6 4 3 2 2 3 3 3 2 2 1 1 2 1 0 -0 -0 -1 -1 -1 -1 -1 -1 -1 -1 -1 -1 -1 -1 -1 -1 -1 -1 -1 -1 -1 -0 -0 -1 -1
5 5 5 4 4 4 5 5 6 5 4 3 3 3 3 3 3 2 2 2 2 1 1 0 -0 -1 -1 -1 -1 -1 -1 -1 -1 -1 -1 -2 -1 -1 -1 -1 -1 -1 -1 -1 -1 -1 -1 -0 -0
5 7 6 5 5 5 4 6 7 5 4 4 3 3 3 3 2 3 2 2 2 1 1 1 0 -0 -0 -1 -1 -1 -1 -1 -1 -1 -2 -2 -2 -1 -1 -1 -1 -1 -1 -1 -1 -1 -1 -1 0
7 6 9 6 5 5 5 9 6 4 5 5 4 3 3 2 2 2 2 2 1 1 1 1 0 0 -0 -0 -0 -0 -1 -1 -1 -1 -1 -2 -2 -2 -1 -1 -0 -1 -1 -1 -1 1 1 1 1
7 10 9 8 5 6 6 8 5 4 5 5 4 4 3 3 2 2 2 2 1 1 1 1 0 0 0 -0 -0 -0 -1 -1 -1 -1 -1 -2 -1 -1 -1 -1 -0 -1 -1 -1 0 2 2 2 2
10 10 9 9 6 6 7 7 5 4 4 5 4 4 3 3 3 2 2 1 1 1 1 1 1 0 0 -0 -0 -0 -0 -0 -1 -1 -1 -2 -1 -1 -1 -0 -0 -1 -0 1 2 1 2 2 2
8 10 9 8 6 7 7 7 6 5 4 5 4 4 3 3 3 2 2 1 1 1 1 1 1 0 1 1 1 1 1 0 -1 -1 -1 -1 -1 -1 -1 1 0 1 2 1 1 1 2 2 3
9 11 10 8 6 7 7 8 6 5 5 4 5 4 3 3 3 3 2 2 2 2 1 1 1 1 1 1 1 1 1 0 -0 -1 -1 -1 -1 -1 -0 0 0 1 1 1 1 1 2 2 3
9 10 10 10 7 6 7 8 7 6 5 4 4 4 3 3 4 3 3 2 2 2 2 1 1 1 1 0 0 0 -0 -0 1 1 0 -0 -0 -0 -1 -0 0 1 0 1 0 1 3 5 3
12 7 9 9 10 13 7 12 8 7 6 5 5 4 3 3 3 3 3 3 2 2 1 1 1 1 1 0 0 1 2 2 1 1 0 0 0 0 -0 0 1 1 1 2 3 3 3 3 4
9 8 8 9 11 11 9 11 9 7 8 6 5 4 3 3 3 4 3 3 2 2 1 1 1 1 0 0 -0 1 1 1 1 1 1 0 0 0 0 0 -0 1 2 2 4 3 3 3 3
7 9 9 12 13 18 10 10 10 9 7 6 5 4 4 3 3 3 3 2 2 2 1 1 1 1 0 0 0 1 1 1 2 2 2 1 1 1 0 0 2 3 3 4 2 2 2 3 3
8 12 18 19 17 16 9 11 10 7 6 5 5 5 4 3 3 3 3 3 3 2 2 2 1 2 1 1 1 1 0 1 1 1 1 1 1 1 3 3 4 3 2 2 2 2 3 3 5
9 12 18 20 16 14 9 12 10 6 5 4 4 4 3 3 3 3 3 3 3 2 2 2 2 2 2 1 1 0 1 1 1 0 1 1 1 2 4 4 3 2 4 4 3 3 4 4 4
9 15 11 16 12 12 11 9 8 6 5 5 5 4 4 3 4 3 3 3 3 2 2 2 2 2 1 1 1 1 1 0 1 0 0 1 3 4 3 3 5 5 4 4 3 4 4 5 4
9 10 16 16 18 20 12 11 11 8 7 5 5 5 4 3 4 3 3 3 2 2 2 2 2 2 2 1 1 1 0 1 1 1 3 3 4 5 6 5 5 5 5 4 3 4 5 5 5
9 10 11 12 14 18 15 16 9 7 6 5 5 4 4 4 4 3 3 3 2 2 2 2 2 2 2 2 1 1 1 2 3 4 5 5 6 6 6 6 6 6 5 5 5 5 6 6 4
7 8 11 17 16 14 13 18 7 7 6 5 5 4 4 3 3 3 3 3 3 2 3 2 2 2 2 2 3 4 5 5 6 6 6 6 6 6 6 6 6 6 6 5 5 6 6 5 6